sat.trackr.live / text

‹ back to catalog

STARLINK-35208

NORAD 65854 · 2025-223A

PAYLOAD ACTIVE UNKNOWN

§ Identity

Operator
Country
US
Launch date
2025-10-03
Launch site
AFWTR
Launch vehicle
Mass (kg)
RCS (m²)

Purposes: comms

External: N2YO · Heavens-Above · Gunter

§ Orbital elements

Epoch: 2026-09-20T06:51:25.659360Z

Period
93.85 min
Inclination
53.1582°
Eccentricity
0.0001424
Mean motion
15.34442618 rev/d
Perigee alt
461.6 km
Apogee alt
463.6 km
Semi-major
6,840.7 km
B*
1.2596e-3
RAAN
106.4427°
Arg perigee
74.8237°
Mean anomaly
285.2923°
Rev number
5,405

§ Raw data

STARLINK-352081 65854U 25223A   26263.28571365  .00042479  00000+0  12596-2 0  99982 65854  53.1582 106.4427 0001424  74.8237 285.2923 15.34442618 54053

JSON: /api/v1/satellites/65854 · /tle

For live sub-satellite position, see the globe view (requires WebGL).

§ Visibility from observer

Set your observer location to see the next 7 days of passes ≥ 10°. The values pass through the URL so the page stays shareable.

No JS? Fill the form by hand. The geolocation button needs JavaScript.